User: anonymous   Login
Location: Unspecified
(0.0000°N, 0.0000°E)
Time: 19:47:24
(UTC+00:00)
Language:

Explorer 7 - Orbit

View from above orbital plane
View from above orbital plane
View from above satellite
View from above satellite

Ground track
Ground track

The orbit data is extracted from the following two-line orbital elements,

1 00022U 59009A   15154.16063506  .00001865  00000-0  17138-3 0  9993
2 00022 050.2839 088.2961 0147704 074.6017 287.1192 14.92041296950007
Epoch (UTC): 03 June 2015 03:51:18
Eccentricity: 0.0147704
inclination: 50.2839°
perigee height: 488 km
apogee height: 694 km
right ascension of ascending node: 88.2961°
argument of perigee: 74.6017°
revolutions per day: 14.92041296
mean anomaly at epoch: 287.1192°
orbit number at epoch: 95000

The dashed part of the orbit path shows where the satellite is in the earth's shadow,  

DLR